Visibility
6.0 7.2 13.2 15.0 15.0 15.0 15.0 15.0 15.0 15.0 15.0 15.0 15.0 15.0 15.0 15.0 15.0 15.0 15.0 15.0 14.7 15.0 15.0 15.0 15.0 15.0 15.0
14.1 8.6 13.8 15.0 15.0 15.0 15.0 15.0 15.0 15.0 15.0 15.0 15.0 15.0 15.0 15.0 15.0 15.0 15.0 15.0 15.0 15.0 15.0 15.0 15.0 15.0 14.9
3.4 5.3 3.9 15.0 15.0 15.0 15.0 15.0 15.0 15.0 15.0 15.0 15.0 15.0 15.0 15.0 15.0 15.0 15.0 15.0 15.0 15.0 15.0 15.0 15.0 15.0 13.1
4.8 4.3 2.5 15.0 5.2 13.5 0.1 15.0 15.0 11.7 15.0 15.0 15.0 15.0 15.0 15.0 15.0 15.0 15.0 15.0 15.0 15.0 15.0 15.0 15.0 15.0 15.0
2.3 13.6 9.7 0.1 2.1 15.0 15.0 15.0 15.0 15.0 15.0 3.5 11.3 8.7 15.0 15.0 15.0 15.0 15.0 15.0 15.0 15.0 15.0 15.0 15.0 15.0 15.0
0.8 2.3 6.3 14.7 6.3 13.6 15.0 3.0 0.0 3.6 15.0 0.2 4.1 13.0 15.0 15.0 15.0 15.0 15.0 15.0 15.0 15.0 15.0 15.0 15.0 15.0 15.0
2.1 2.7 2.4 6.0 2.8 8.4 9.2 15.0 15.0 0.4 15.0 15.0 0.1 1.4 15.0 15.0 15.0 15.0 15.0 15.0 15.0 15.0 15.0 15.0 15.0 15.0 15.0
4.0 5.2 11.5 13.4 14.0 15.0 15.0 15.0 1.1 1.6 9.1 7.9 0.1 1.1 9.1 15.0 15.0 15.0 15.0 15.0 15.0 15.0 15.0 15.0 15.0 15.0 15.0
6.4 13.2 11.3 15.0 10.9 6.7 5.2 0.1 0.1 0.0 2.5 4.6 0.1 0.2 13.4 8.6 15.0 15.0 15.0 15.0 15.0 15.0 15.0 15.0 15.0 15.0 15.0
15.0 10.0 15.0 14.9 13.4 5.0 2.5 7.5 5.6 0.0 0.4 1.3 0.2 5.7 0.1 0.1 15.0 15.0 15.0 15.0 15.0 15.0 15.0 15.0 15.0 15.0 15.0
15.0 14.2 15.0 5.3 12.6 3.0 15.0 7.5 6.9 0.1 8.6 0.0 0.0 0.0 0.0 0.0 0.2 15.0 15.0 15.0 15.0 15.0 15.0 15.0 15.0 15.0 15.0
15.0 15.0 15.0 15.0 1.9 3.8 15.0 15.0 15.0 12.4 15.0 0.2 0.0 0.0 0.0 0.0 0.0 0.4 7.2 15.0 15.0 15.0 15.0 15.0 15.0 15.0 15.0
15.0 15.0 15.0 15.0 15.0 3.6 5.5 1.7 1.7 2.2 8.5 1.8 0.0 0.0 0.0 0.0 0.0 0.1 0.1 1.3 15.0 15.0 15.0 0.4 0.1 0.1 0.1
15.0 15.0 15.0 6.2 0.8 0.1 0.0 0.0 0.0 0.0 0.0 0.0 0.0 0.0 0.0 0.0 0.2 0.1 0.2 0.9 1.4 14.7 11.9 0.1 0.2 12.7 14.2
15.0 15.0 15.0 5.5 0.1 0.1 0.0 0.0 0.0 0.0 0.0 0.0 0.1 0.1 0.1 0.0 0.0 9.9 0.2 0.1 15.0 15.0 15.0 12.3 15.0 1.7 0.3
15.0 15.0 15.0 9.5 0.1 0.0 0.0 0.0 0.0 0.0 0.0 0.0 0.1 0.1 0.1 14.5 5.9 0.2 1.2 0.2 8.1 11.5 15.0 14.5 5.7 15.0 15.0
15.0 15.0 15.0 2.4 0.0 0.0 0.0 0.0 0.0 0.0 0.0 0.0 0.0 0.1 0.0 0.1 1.0 15.0 0.2 2.1 1.2 1.2 15.0 15.0 15.0 14.8 15.0